Location: Unspecified
(40.7945°N, 0.0000°E)
Time: 07:44:52
(UTC+00:00)

deb Explorer IX - Pass Details

Date: 22 January 2021
Orbit: 537 x 1103 km, 38.8° (Epoch: 23 February)

Event Time Altitude Azimuth Distance (km) Brightness Sun altitude
Rises 18:51:30 0° 246° (WSW) 3,617 ? -20.0°
Reaches altitude 10° 18:54:20 10° 242° (WSW) 2,585 ? -20.5°
Maximum altitude 19:00:19 56° 166° (SSE) 949 ? -21.6°
Enters shadow 19:01:42 44° 117° (ESE) 1,075 ? -21.9°
